[[{"header":{"parameterUnit":"m.s-1","parameterCategory":1,"la1":30.2991,"la2":30.254,"lo1":-89.0895,"lo2":-89.0444,"dy":0.0017,"dx":0.0017,"nx":28,"ny":28,"refTime":"2025-02-03T03:00:00:Z","depth":0,"parameterNumber":2,"parameterNumberName":"U-component_of_WINDS"},"data":[0,0,0,0,0,0,0,0,0,0,0,0,0,0,0,0,0,0,0,0,0,0,0,0,0,0,0,0,0,0,0,0,0,0,0,0,0,0,0,0,0,0,0,0,0,0,0,0,0,0,0,0,0,0,0,0,0,0,-0.0781,-0.0781,0,-0.0743,-0.0743,-0.0743,-0.0719,-0.0719,-0.0719,-0.0719,-0.0682,-0.0681,-0.0681,0,0,0,0,0,0,0,0,0,0,0,0,0,-0.0836,-0.0835,-0.0781,-0.0781,-0.078,-0.0743,-0.0743,-0.0742,-0.0719,-0.0719,-0.0719,-0.0719,-0.0683,-0.0682,-0.0681,0,0,0,0,0,0,0,0,0,0,0,0,0,-0.0807,-0.0835,-0.0781,-0.0764,-0.0762,-0.0744,-0.0743,-0.0742,-0.0719,-0.0719,-0.0719,-0.0719,-0.0683,-0.0682,-0.068,-0.0676,0,0,-0.0676,-0.0676,0,0,0,0,0,0,0,0,-0.0808,-0.0805,-0.0767,-0.0765,-0.0763,-0.0736,-0.0749,-0.072,-0.072,-0.0736,-0.0719,-0.0719,-0.07,-0.0698,-0.0691,-0.0674,-0.0673,-0.0676,-0.0675,-0.0675,-0.0675,0,0,0,0,0,0,0,-0.081,-0.0806,-0.0766,-0.0767,-0.0764,-0.0759,-0.0755,-0.0743,-0.072,-0.0734,-0.0733,-0.0728,-0.0699,-0.0692,-0.069,-0.0672,-0.0676,-0.0675,-0.0674,-0.0674,-0.0651,-0.0651,0,0,0,0,0,0,-0.0815,-0.0808,-0.0768,-0.0765,-0.0786,-0.0759,-0.0754,-0.0745,-0.072,-0.0716,-0.0729,-0.0727,-0.0695,-0.0692,-0.0689,-0.0682,-0.0675,-0.0674,-0.0673,-0.065,-0.0651,-0.0651,0,0,0,0,0,0,-0.0816,-0.0811,-0.0769,-0.0786,-0.078,-0.0758,-0.0748,-0.0744,-0.0737,-0.0715,-0.0711,-0.0726,-0.0694,-0.069,-0.0679,-0.0681,-0.0673,-0.0672,-0.065,-0.0651,-0.0651,-0.0669,0,0,0,0,0,0,-0.0818,-0.0812,-0.0809,-0.0786,-0.0779,-0.076,-0.0748,-0.0744,-0.0735,-0.0733,-0.0711,-0.0708,-0.0694,-0.0681,-0.0678,-0.0679,-0.0671,-0.065,-0.065,-0.0651,-0.0668,-0.067,-0.0671,0,0,0,0,0,-0.082,-0.0816,-0.0809,-0.0805,-0.0776,-0.076,-0.0756,-0.074,-0.0735,-0.0733,-0.0719,-0.0708,-0.0681,-0.068,-0.0676,-0.0677,-0.065,-0.065,-0.0651,-0.0668,-0.067,-0.0671,0,0,0,0,0,0,-0.0841,-0.0813,-0.0805,-0.0794,-0.0779,-0.0756,-0.0753,-0.0742,-0.0729,-0.0728,-0.0709,-0.0704,-0.0695,-0.0685,-0.0685,-0.0672,-0.0664,-0.0664,-0.0679,-0.068,-0.0682,-0.0685,-0.067,0,0,0,0,0,-0.0844,-0.0833,-0.0809,-0.0802,-0.0795,-0.0775,-0.0768,-0.0756,-0.0741,-0.0735,-0.072,-0.0706,-0.0694,-0.0686,-0.0674,-0.0667,-0.0662,-0.0665,-0.0667,-0.0668,-0.0668,-0.0664,-0.0665,-0.0652,-0.0652,-0.0652,0,0,-0.0851,-0.0835,-0.0829,-0.0806,-0.0793,-0.0783,-0.077,-0.0759,-0.0752,-0.0733,-0.0722,-0.071,-0.0693,-0.0684,-0.0679,-0.0675,-0.067,-0.0668,-0.067,-0.0669,-0.0664,-0.0666,-0.0667,-0.0652,-0.0652,-0.0652,0,0,-0.0859,-0.0845,-0.0837,-0.0825,-0.0806,-0.0792,-0.0791,-0.0769,-0.076,-0.0748,-0.0735,-0.0725,-0.0705,-0.0694,-0.0686,-0.0689,-0.0679,-0.0686,-0.0694,-0.069,-0.0691,-0.0692,-0.0694,-0.0695,-0.0686,-0.0686,-0.0686,0,-0.087,-0.0853,-0.0835,-0.0825,-0.0816,-0.0798,-0.0791,-0.078,-0.0758,-0.0752,-0.0748,-0.0723,-0.071,-0.0698,-0.0699,-0.0692,-0.069,-0.0688,-0.0692,-0.0693,-0.0693,-0.0695,-0.0696,-0.0687,-0.0687,-0.0687,-0.0687,0,-0.0868,-0.0856,-0.0853,-0.0832,-0.0822,-0.0813,-0.0795,-0.0787,-0.0777,-0.0765,-0.0753,-0.0737,-0.0722,-0.0718,-0.0708,-0.0705,-0.0703,-0.0696,-0.0688,-0.0696,-0.0697,-0.0697,-0.0688,-0.0688,-0.0688,-0.0687,0,0,-0.0887,-0.0857,-0.0856,-0.0846,-0.0824,-0.0815,-0.0806,-0.079,-0.0785,-0.077,-0.0763,-0.0747,-0.074,-0.073,-0.0719,-0.0716,-0.072,-0.0709,-0.0708,-0.0712,-0.0716,-0.0722,-0.0723,-0.0713,-0.0713,-0.0713,-0.0718,0,-0.0892,-0.0874,-0.0858,-0.0846,-0.0836,-0.0819,-0.0812,-0.0798,-0.0786,-0.0776,-0.0763,-0.0752,-0.0744,-0.0738,-0.0734,-0.072,-0.0721,-0.072,-0.0707,-0.0707,-0.0712,-0.0724,-0.073,-0.0735,-0.0718,-0.0718,-0.0718,0,-0.0894,-0.088,-0.0868,-0.0847,-0.0842,-0.0835,-0.082,-0.081,-0.0795,-0.0786,-0.0776,-0.0764,-0.0755,-0.0748,-0.0736,-0.0735,-0.0729,-0.0722,-0.0722,-0.072,-0.0713,-0.0723,-0.0736,-0.0737,-0.0719,-0.0719,-0.0719,0,-0.091,-0.0888,-0.0878,-0.087,-0.0846,-0.0842,-0.0831,-0.0815,-0.0807,-0.0794,-0.0789,-0.0775,-0.0768,-0.0758,-0.0743,-0.0739,-0.0732,-0.0724,-0.0726,-0.0726,-0.0725,-0.0725,-0.0738,-0.0721,-0.0721,-0.0721,-0.0721,0,-0.0917,-0.091,-0.0885,-0.0879,-0.0871,-0.0853,-0.0846,-0.0834,-0.082,-0.0812,-0.0797,-0.0789,-0.077,-0.076,-0.0749,-0.074,-0.0737,-0.0731,-0.0728,-0.0732,-0.0733,-0.0728,-0.0728,-0.0721,-0.0721,-0.0721,-0.0721,0,-0.0934,-0.0916,-0.0904,-0.0882,-0.0876,-0.0871,-0.0853,-0.0847,-0.0834,-0.0824,-0.0821,-0.0801,-0.079,-0.0773,-0.0757,-0.0749,-0.0743,-0.0738,-0.0748,-0.0746,-0.0749,-0.0749,-0.0759,-0.0759,-0.0742,-0.0742,-0.0742,0,-0.0939,-0.0933,-0.091,-0.0903,-0.0894,-0.0883,-0.0874,-0.0856,-0.0848,-0.083,-0.0826,-0.0813,-0.0802,-0.0784,-0.0769,-0.0757,-0.0752,-0.0756,-0.075,-0.0755,-0.0752,-0.0753,-0.0753,-0.0758,-0.0758,-0.0758,-0.0758,0,-0.0951,-0.0943,-0.0931,-0.0916,-0.0906,-0.0894,-0.0881,-0.0876,-0.0856,-0.0848,-0.0835,-0.0827,-0.081,-0.0797,-0.0783,-0.0773,-0.0763,-0.0761,-0.076,-0.0765,-0.0771,-0.0768,-0.0752,-0.076,-0.076,-0.076,-0.076,-0.076,-0.0962,-0.0956,-0.0939,-0.0927,-0.0915,-0.0904,-0.0897,-0.0883,-0.0872,-0.0857,-0.0847,-0.0835,-0.082,-0.08,-0.0791,-0.0782,-0.0778,-0.0777,-0.0777,-0.0777,-0.0779,-0.0772,-0.0779,-0.0779,-0.0779,-0.0779,-0.0779,0,-0.0973,-0.0962,-0.095,-0.0932,-0.0923,-0.0913,-0.0898,-0.0891,-0.0881,-0.0867,-0.0857,-0.0843,-0.0831,-0.0815,-0.0802,-0.0798,-0.0793,-0.0795,-0.0796,-0.0794,-0.0783,-0.0785,-0.08,-0.08,-0.08,-0.08,-0.08,-0.08,-0.0978,-0.0968,-0.0958,-0.0943,-0.0931,-0.0919,-0.0911,-0.0901,-0.089,-0.0875,-0.0865,-0.0854,-0.084,-0.0826,-0.0815,-0.0811,-0.0807,-0.0811,-0.0806,-0.0796,-0.0794,-0.0793,-0.0794,-0.081,-0.081,-0.0817,-0.0817,-0.0817]},{"header":{"parameterUnit":"m.s-1","parameterCategory":1,"la1":30.2991,"la2":30.254,"lo1":-89.0895,"lo2":-89.0444,"dy":0.0017,"dx":0.0017,"nx":28,"ny":28,"refTime":"2025-02-03T03:00:00:Z","depth":0,"parameterNumber":3,"parameterNumberName":"V-component_of_WINDS"},"data":[0,0,0,0,0,0,0,0,0,0,0,0,0,0,0,0,0,0,0,0,0,0,0,0,0,0,0,0,0,0,0,0,0,0,0,0,0,0,0,0,0,0,0,0,0,0,0,0,0,0,0,0,0,0,0,0,0,0,0.9457,0.9457,0,0.9471,0.9471,0.9471,0.946,0.9459,0.9459,0.9458,0.9475,0.9476,0.9477,0,0,0,0,0,0,0,0,0,0,0,0,0,0.9421,0.9422,0.9457,0.9457,0.9457,0.9471,0.9471,0.9471,0.946,0.9459,0.9459,0.9458,0.9475,0.9476,0.9477,0,0,0,0,0,0,0,0,0,0,0,0,0,0.9436,0.9422,0.9457,0.9453,0.9453,0.9471,0.9471,0.9472,0.946,0.9459,0.9458,0.9458,0.9475,0.9476,0.9477,0.9501,0,0,0.9482,0.9482,0,0,0,0,0,0,0,0,0.9435,0.9437,0.9453,0.9453,0.9453,0.9463,0.9465,0.9481,0.946,0.9457,0.9458,0.9457,0.9472,0.9473,0.9478,0.9502,0.9503,0.9482,0.9483,0.9483,0.9484,0,0,0,0,0,0,0,0.9434,0.9437,0.9462,0.9453,0.9453,0.9451,0.9452,0.9468,0.9469,0.9457,0.9457,0.9458,0.9472,0.9477,0.9478,0.9503,0.9482,0.9483,0.9484,0.9484,0.9547,0.9547,0,0,0,0,0,0,0.9433,0.9436,0.9462,0.9463,0.9442,0.9452,0.9454,0.946,0.9468,0.9469,0.9459,0.9458,0.9475,0.9477,0.9479,0.9507,0.9483,0.9484,0.9485,0.9546,0.9547,0.9548,0,0,0,0,0,0,0.9432,0.9436,0.9461,0.9449,0.9452,0.9454,0.9461,0.9461,0.9466,0.947,0.947,0.9464,0.9474,0.9477,0.9495,0.9507,0.9485,0.9486,0.9545,0.9546,0.9547,0.9564,0,0,0,0,0,0,0.9431,0.9435,0.9444,0.9449,0.9453,0.9477,0.9462,0.9462,0.9468,0.9467,0.9474,0.9475,0.9474,0.9493,0.9497,0.9509,0.9487,0.9544,0.9545,0.9547,0.9562,0.9565,0.9568,0,0,0,0,0,0.943,0.9449,0.9445,0.9448,0.9464,0.9478,0.948,0.9478,0.9469,0.9478,0.948,0.9474,0.9505,0.9495,0.9499,0.9512,0.9543,0.9545,0.9547,0.9561,0.9565,0.9568,0,0,0,0,0,0,0.9446,0.9449,0.9445,0.9465,0.9471,0.9476,0.9487,0.9482,0.9492,0.949,0.9487,0.9489,0.9509,0.9512,0.9501,0.9535,0.9523,0.9526,0.9532,0.9536,0.9539,0.9538,0.9489,0,0,0,0,0,0.9452,0.9462,0.9465,0.9483,0.9486,0.9486,0.9492,0.949,0.9496,0.9499,0.9503,0.951,0.9521,0.9529,0.9539,0.9562,0.9564,0.9573,0.9576,0.9578,0.9581,0.9593,0.9597,0.9554,0.9554,0.9554,0,0,0.9464,0.9467,0.9474,0.9486,0.9491,0.9502,0.9488,0.9502,0.951,0.9501,0.9519,0.9522,0.9529,0.955,0.956,0.9554,0.9593,0.9581,0.9583,0.9584,0.9596,0.96,0.9604,0.9555,0.9555,0.9555,0,0,0.9492,0.9496,0.9511,0.9515,0.9521,0.9521,0.9525,0.953,0.9531,0.9548,0.9542,0.9552,0.9572,0.9578,0.9583,0.9612,0.9608,0.9616,0.9632,0.9644,0.9648,0.9651,0.9662,0.9665,0.9618,0.9618,0.9618,0,0.9507,0.9524,0.952,0.9533,0.9538,0.9529,0.9545,0.955,0.956,0.9564,0.9557,0.9581,0.9585,0.9607,0.9614,0.9619,0.9623,0.9616,0.9647,0.965,0.9653,0.9664,0.9668,0.9619,0.9619,0.9619,0.9619,0,0.9542,0.9553,0.9565,0.9574,0.958,0.9595,0.9593,0.9601,0.9598,0.9598,0.9616,0.9621,0.9632,0.9637,0.9634,0.9659,0.9655,0.9648,0.9635,0.9658,0.9668,0.9672,0.9621,0.9621,0.962,0.962,0,0,0.9582,0.9587,0.9591,0.9595,0.9601,0.961,0.9624,0.9634,0.9641,0.9647,0.966,0.9676,0.9669,0.9675,0.9673,0.9683,0.9706,0.9675,0.9675,0.9681,0.9734,0.974,0.9744,0.9703,0.9703,0.9704,0.9733,0,0.9611,0.9635,0.9631,0.9654,0.9665,0.9656,0.9668,0.9673,0.9674,0.9684,0.9685,0.9696,0.9686,0.969,0.97,0.9702,0.9717,0.9699,0.9715,0.9715,0.9714,0.9749,0.9756,0.9783,0.9737,0.9738,0.9738,0,0.9648,0.9655,0.9679,0.9683,0.9687,0.9698,0.9707,0.9716,0.9722,0.9721,0.9728,0.9723,0.9738,0.9724,0.9745,0.9733,0.9738,0.974,0.9741,0.9743,0.9729,0.9753,0.9792,0.9796,0.9744,0.9743,0.9743,0,0.9676,0.9691,0.9707,0.9711,0.9715,0.9723,0.9725,0.973,0.9736,0.9744,0.9748,0.9758,0.9763,0.9771,0.9769,0.976,0.979,0.9776,0.9791,0.9791,0.9798,0.9798,0.9839,0.9801,0.9801,0.9801,0.9801,0,0.9709,0.9724,0.972,0.973,0.9747,0.9742,0.9759,0.976,0.9764,0.9775,0.9768,0.9778,0.9775,0.9785,0.9784,0.9801,0.9803,0.9804,0.9804,0.9805,0.9805,0.981,0.9808,0.9802,0.9802,0.9801,0.9801,0,0.9743,0.9741,0.9758,0.976,0.9761,0.9773,0.9775,0.9785,0.9784,0.9798,0.9801,0.9801,0.9812,0.9811,0.9824,0.9823,0.9845,0.9842,0.9843,0.9842,0.9857,0.9856,0.9903,0.9909,0.9866,0.9866,0.9867,0,0.9765,0.9776,0.9779,0.9785,0.9788,0.9798,0.9804,0.9799,0.9806,0.9813,0.9822,0.9832,0.9841,0.9859,0.9861,0.9871,0.9869,0.9884,0.987,0.9871,0.9869,0.9869,0.987,0.9888,0.9888,0.9889,0.9889,0,0.9804,0.9802,0.981,0.9818,0.9825,0.9831,0.9837,0.9842,0.9838,0.9846,0.9857,0.9863,0.9876,0.9887,0.9896,0.9899,0.9894,0.9893,0.9897,0.9899,0.9899,0.99,0.9851,0.9892,0.9892,0.9892,0.9892,0.9891,0.9834,0.9843,0.9846,0.9856,0.9859,0.9864,0.9873,0.9873,0.9882,0.9892,0.9888,0.9901,0.9906,0.9918,0.9921,0.9932,0.9926,0.9932,0.9933,0.9935,0.9937,0.9897,0.9933,0.9933,0.9933,0.9933,0.9933,0,0.9873,0.9874,0.9883,0.989,0.9897,0.989,0.9895,0.9902,0.9913,0.9918,0.9926,0.9938,0.9948,0.995,0.996,0.9968,0.9965,0.9971,0.997,0.9971,0.9941,0.9937,0.9972,0.9972,0.9972,0.9972,0.9972,0.9972,0.9894,0.991,0.9908,0.9925,0.9927,0.9938,0.9942,0.9947,0.995,0.9964,0.9972,0.9973,0.9976,0.9986,0.9995,0.9995,1.0,1.0006,1.0005,0.9977,0.9973,0.997,0.9966,1.0007,1.0007,1.0035,1.0035,1.0035]}]]